TimePST,TemperatureF,Dew PointF,Humidity,Sea Level PressureIn,VisibilityMPH,Wind Direction,Wind SpeedMPH,Gust SpeedMPH,PrecipitationIn,Events,Conditions,WindDirDegrees,DateUTC
12:07 AM,41.0,41.0,100,29.53,10.0,Variable,2.3,-,N/A,,Overcast,0,2012-12-20 08:07:00
12:14 AM,41.0,41.0,100,29.52,10.0,ESE,3.5,-,N/A,Rain,Light Rain,110,2012-12-20 08:14:00
12:28 AM,41.0,41.0,100,29.51,10.0,SE,3.5,-,N/A,,Overcast,140,2012-12-20 08:28:00
12:31 AM,41.0,41.0,100,29.51,10.0,Variable,2.3,-,N/A,Rain,Light Rain,0,2012-12-20 08:31:00
12:40 AM,42.8,41.0,93,29.51,10.0,South,4.6,-,N/A,,Overcast,170,2012-12-20 08:40:00
12:46 AM,42.8,41.0,93,29.51,10.0,SSE,8.1,-,N/A,Rain,Light Rain,160,2012-12-20 08:46:00
12:58 AM,42.8,40.8,93,29.52,10.0,South,12.7,-,0.00,Rain,Light Rain,170,2012-12-20 08:58:00
1:58 AM,44.4,41.0,88,29.52,10.0,SSE,13.8,-,0.01,Rain,Light Rain,160,2012-12-20 09:58:00
2:49 AM,44.6,41.0,87,29.51,10.0,South,16.1,-,N/A,,Mostly Cloudy,170,2012-12-20 10:49:00
2:58 AM,44.6,41.0,87,29.53,10.0,South,17.3,-,0.01,,Mostly Cloudy,180,2012-12-20 10:58:00
3:42 AM,44.6,41.0,87,29.53,10.0,South,17.3,-,N/A,Rain,Light Rain,190,2012-12-20 11:42:00
3:56 AM,46.4,41.0,81,29.53,10.0,South,13.8,25.3,N/A,,Scattered Clouds,190,2012-12-20 11:56:00
3:58 AM,45.7,40.5,82,29.54,10.0,South,15.0,-,0.00,,Scattered Clouds,190,2012-12-20 11:58:00
4:04 AM,44.6,41.0,87,29.52,10.0,South,13.8,-,N/A,Rain,Light Rain,190,2012-12-20 12:04:00
4:58 AM,43.7,41.2,91,29.55,10.0,South,6.9,-,0.01,Rain,Light Rain,170,2012-12-20 12:58:00
5:58 AM,43.0,40.8,92,29.55,10.0,South,6.9,-,0.02,Rain,Light Rain,180,2012-12-20 13:58:00
6:50 AM,42.8,41.0,93,29.54,10.0,SW,4.6,-,N/A,,Overcast,220,2012-12-20 14:50:00
6:54 AM,41.0,41.0,100,29.54,10.0,WSW,4.6,-,N/A,Rain,Light Rain,240,2012-12-20 14:54:00
6:58 AM,41.9,40.5,95,29.56,10.0,WSW,4.6,-,0.03,Rain,Light Rain,240,2012-12-20 14:58:00
7:08 AM,41.0,41.0,100,29.54,10.0,SW,5.8,-,N/A,Rain,Light Rain,230,2012-12-20 15:08:00
7:13 AM,41.0,41.0,100,29.55,10.0,WSW,5.8,-,N/A,Rain,Light Rain,240,2012-12-20 15:13:00
7:58 AM,41.4,40.3,96,29.57,9.0,SW,6.9,-,0.05,Rain,Light Rain,220,2012-12-20 15:58:00
8:58 AM,40.8,39.7,96,29.60,10.0,South,10.4,-,0.02,Rain,Light Rain,190,2012-12-20 16:58:00
9:48 AM,41.0,37.4,87,29.60,6.0,South,20.7,23.0,N/A,,Overcast,190,2012-12-20 17:48:00
9:58 AM,40.6,37.8,89,29.62,8.0,South,12.7,-,0.07,,Overcast,190,2012-12-20 17:58:00
10:18 AM,41.0,37.4,87,29.61,10.0,South,15.0,-,N/A,,Overcast,190,2012-12-20 18:18:00
10:58 AM,40.3,37.9,91,29.65,10.0,South,12.7,-,0.04,Rain,Light Rain,190,2012-12-20 18:58:00
11:58 AM,39.9,38.1,93,29.66,10.0,South,13.8,-,0.05,,Overcast,180,2012-12-20 19:58:00
12:58 PM,40.1,37.8,91,29.70,10.0,South,15.0,-,0.03,Rain,Light Rain,180,2012-12-20 20:58:00
1:19 PM,39.2,37.4,93,29.67,10.0,SSE,8.1,-,N/A,,Mostly Cloudy,160,2012-12-20 21:19:00
1:58 PM,40.1,38.5,94,29.71,10.0,South,5.8,-,0.01,,Mostly Cloudy,170,2012-12-20 21:58:00
2:58 PM,41.4,38.5,89,29.75,10.0,South,10.4,-,N/A,,Scattered Clouds,190,2012-12-20 22:58:00
3:58 PM,39.7,36.1,87,29.77,10.0,South,12.7,-,N/A,,Partly Cloudy,180,2012-12-20 23:58:00
4:58 PM,37.2,34.9,91,29.79,10.0,South,10.4,-,N/A,,Partly Cloudy,170,2012-12-21 00:58:00
5:58 PM,35.4,33.4,92,29.81,10.0,South,5.8,-,N/A,,Clear,170,2012-12-21 01:58:00
6:58 PM,34.3,33.1,95,29.82,10.0,SSW,2.3,-,N/A,,Mostly Cloudy,210,2012-12-21 02:58:00
7:58 PM,32.9,31.6,95,29.82,10.0,Calm,Calm,-,N/A,,Clear,0,2012-12-21 03:58:00
8:58 PM,33.6,32.7,96,29.83,10.0,Variable,1.2,-,N/A,,Clear,0,2012-12-21 04:58:00
9:13 PM,32.0,32.0,100,29.81,8.0,ESE,2.3,-,N/A,,Clear,110,2012-12-21 05:13:00
9:18 PM,32.0,32.0,100,29.81,5.0,ESE,3.5,-,N/A,,Clear,120,2012-12-21 05:18:00
9:28 PM,32.0,30.2,93,29.81,2.5,SE,1.2,-,N/A,,Clear,140,2012-12-21 05:28:00
9:33 PM,32.0,32.0,100,29.81,1.0,Variable,1.2,-,N/A,,Clear,0,2012-12-21 05:33:00
9:38 PM,32.0,32.0,100,29.81,0.8,SSE,2.3,-,N/A,,Clear,160,2012-12-21 05:38:00
9:43 PM,30.2,30.2,100,29.81,1.0,South,2.3,-,N/A,,Clear,180,2012-12-21 05:43:00
9:48 PM,30.2,28.4,93,29.81,3.0,NE,1.2,-,N/A,,Clear,50,2012-12-21 05:48:00
9:58 PM,28.4,27.9,98,29.83,4.0,SE,2.3,-,N/A,,Clear,130,2012-12-21 05:58:00
10:03 PM,28.4,28.4,100,29.81,1.0,ESE,2.3,-,N/A,,Clear,110,2012-12-21 06:03:00
10:08 PM,28.4,28.4,100,29.81,0.2,ESE,3.5,-,N/A,Fog,Light Freezing Fog,110,2012-12-21 06:08:00
10:13 PM,30.2,30.2,100,29.81,0.2,East,3.5,-,N/A,Fog,Light Freezing Fog,100,2012-12-21 06:13:00
10:18 PM,30.2,30.2,100,29.81,0.8,East,3.5,-,N/A,,Clear,100,2012-12-21 06:18:00
10:23 PM,30.2,30.2,100,29.82,2.0,East,2.3,-,N/A,,Clear,90,2012-12-21 06:23:00
10:28 PM,30.2,30.2,100,29.82,6.0,East,4.6,-,N/A,,Clear,80,2012-12-21 06:28:00
10:53 PM,30.2,30.2,100,29.82,1.8,East,2.3,-,N/A,,Clear,90,2012-12-21 06:53:00
10:58 PM,30.2,30.2,100,29.84,2.0,East,2.3,-,N/A,,Clear,100,2012-12-21 06:58:00
11:03 PM,30.2,30.2,100,29.82,2.5,ESE,3.5,-,N/A,,Clear,110,2012-12-21 07:03:00
11:08 PM,30.2,30.2,100,29.82,3.0,ESE,3.5,-,N/A,,Clear,110,2012-12-21 07:08:00
11:48 PM,28.4,28.4,100,29.82,2.0,ESE,2.3,-,N/A,,Clear,110,2012-12-21 07:48:00
11:53 PM,28.4,28.4,100,29.82,1.0,Calm,Calm,-,N/A,,Clear,0,2012-12-21 07:53:00
11:58 PM,28.6,28.4,99,29.84,0.8,Calm,Calm,-,N/A,,Clear,0,2012-12-21 07:58:00